Overview Statistics Trail Chart Weather Telemetry Raw packets
 

This is the latest recevied weather packets stored in our database for station/object KW6V-15. If no packets are shown the sender has not sent any weather packets the latest 10 day(s).

<< 12 13 14 15 16 17 18 >>
Time Temp. Humidity Pressure Rain* Wind** Luminosity Snow
1788003055 10° C 93% 1015.7 hPa 0 mm - - -
1788001258 10° C 93% 1015.6 hPa 0 mm - - -
1787999461 10° C 92% 1015.6 hPa 0 mm - - -
1787997651 10.56° C 92% 1015.6 hPa 0 mm - - -
1787995862 11.67° C 92% 1015.5 hPa 0 mm - - -
1787994057 12.22° C 92% 1015.6 hPa 0 mm - - -
1787992274 12.22° C 92% 1015.6 hPa 0 mm - - -
1787990436 12.22° C 92% 1015.5 hPa 0 mm - - -
1787988630 12.22° C 92% 1015.5 hPa 0 mm - - -
1787986847 12.78° C 91% 1015.5 hPa 0 mm - - -
1787985041 12.78° C 91% 1015.6 hPa 0 mm - - -
1787983250 12.78° C 91% 1015.4 hPa 0 mm - - -
1787981453 13.33° C 91% 1015.4 hPa 0 mm - - -
1787979622 13.33° C 91% 1015.5 hPa 0 mm - - -
1787977870 13.33° C 90% 1015.5 hPa 0 mm - - -
1787976037 13.33° C 90% 1015.4 hPa 0 mm - - -
1787974252 13.33° C 89% 1015.2 hPa 0 mm - - -
1787972424 13.89° C 88% 1015.5 hPa 0 mm - - -
1787970635 14.44° C 87% 1015.7 hPa 0 mm - - -
1787968872 14.44° C 87% 1016.3 hPa 0 mm - - -
1787967060 15° C 87% 1016.6 hPa 0 mm - - -
1787965236 15° C 86% 1016.7 hPa 0 mm - - -
1787963495 15.56° C 85% 1016.9 hPa 0 mm - - -
1787961639 15° C 85% 1016.9 hPa 0 mm - - -
1787959836 15.56° C 85% 1017.3 hPa 0 mm - - -

* Rain latest hour (hover to see other rain measurements)
** Current wind speed in m/s (hover to see current wind gust speed)